FW0979 Weather Reports


time (UTC)temp
C
wind
direction
speed
KPH
gust
KPH
rain 1hr
cm
rain 24hr
cm
rain mn
cm
humidity
%
barometer
mb
20260502220024 19 200 6.4 12.9 0.00 0.15 0.00 40 1021.1
20260502214520 18 236 6.4 17.7 0.00 0.25 0.00 40 1021.3
20260502213035 18 250 4.8 14.5 0.00 0.25 0.00 41 1021.5
20260502211516 18 208 4.8 11.3 0.00 0.25 0.00 42 1021.9
20260502210015 18 238 6.4 17.7 0.00 0.25 0.00 41 1022.1
20260502204514 18 360 6.4 14.5 0.00 0.25 0.00 41 1022.3
20260502203013 19 360 8.0 16.1 0.00 0.25 0.00 39 1022.5
20260502201522 18 360 3.2 9.7 0.00 0.25 0.00 42 1022.6
20260502200011 18 360 3.2 8.0 0.00 0.25 0.00 43 1022.8
20260502194512 18 214 6.4 16.1 0.00 0.25 0.00 40 1023.1
20260502193010 19 255 4.8 14.5 0.00 0.25 0.00 41 1023.2
20260502191509 18 206 4.8 20.9 0.00 0.25 0.00 42 1023.3
20260502190009 17 360 4.8 16.1 0.00 0.25 0.00 44 1023.3
20260502184508 17 233 3.2 16.1 0.00 0.25 0.00 43 1023.6
20260502183005 18 252 6.4 16.1 0.00 0.25 0.00 42 1023.8
20260502181502 18 201 8.0 17.7 0.00 0.25 0.00 40 1024.1
20260502163048 16 360 4.8 11.3 0.00 0.30 0.00 48 1024.9
20260502161545 15 236 4.8 14.5 0.00 0.30 0.00 49 1025.1
20260502151539 14 21 3.2 8.0 0.00 0.56 0.00 58 1025.1
20260502123059 6 359 0.0 0.0 0.00 1.75 0.00 90 1023.9
20260502121557 6 359 0.0 0.0 0.00 1.75 0.00 90 1023.5
20260502120105 6 359 0.0 1.6 0.00 1.75 0.00 89 1023.3
20260502114557 6 359 3.2 4.8 0.00 2.03 0.00 89 1023.2
20260502113053 6 359 1.6 4.8 0.00 2.03 0.00 89 1023.2
20260502111551 7 359 1.6 9.7 0.00 2.03 0.00 89 1023.0
20260502110056 7 356 8.0 11.3 0.00 2.03 0.00 89 1023.0
20260502104545 7 359 4.8 9.7 0.00 2.31 0.00 90 1023.1
20260502103044 7 355 3.2 8.0 0.00 2.31 0.00 90 1022.9
20260502101545 7 349 4.8 8.0 0.00 2.31 0.00 91 1022.7
20260502071527 8 347 3.2 6.4 0.00 2.97 0.00 89 1022.5
20260502070026 8 347 4.8 8.0 0.00 2.97 0.00 89 1022.5
20260502064539 8 347 3.2 4.8 0.00 2.97 0.00 89 1022.6
20260502063023 8 347 3.2 4.8 0.00 2.97 0.00 88 1022.5
20260502061515 8 347 1.6 6.4 0.00 2.97 0.00 88 1022.5
20260502060007 8 347 4.8 6.4 0.00 2.97 0.00 88 1022.4
20260502054506 7 347 3.2 8.0 0.00 2.97 2.97 88 1022.4
20260502053007 7 347 3.2 6.4 0.00 2.97 2.97 88 1022.3
20260502051504 7 347 3.2 6.4 0.00 2.97 2.97 88 1022.1
20260502050002 8 344 3.2 6.4 0.00 2.97 2.97 88 1021.8
20260502044506 8 344 1.6 6.4 0.00 2.97 2.97 88 1021.8
20260502043100 8 344 3.2 8.0 0.00 2.97 2.97 87 1021.6
20260502041559 8 344 6.4 11.3 0.00 2.97 2.97 87 1021.5
20260502040107 8 342 6.4 11.3 0.00 2.97 2.97 86 1021.3
20260502034557 8 342 8.0 14.5 0.00 2.97 2.97 87 1021.4
20260502033054 8 333 6.4 11.3 0.00 2.97 2.97 87 1021.0
20260502031609 8 93 3.2 6.4 0.00 2.97 2.97 87 1020.7
20260502030053 8 94 1.6 8.0 0.00 2.97 2.97 86 1020.7
20260502024551 8 98 3.2 6.4 0.00 3.00 2.97 85 1020.7
20260502023053 8 96 3.2 4.8 0.00 3.00 2.97 84 1020.3
20260502021547 8 96 1.6 6.4 0.00 3.00 2.97 83 1019.8
20260502014550 8 96 4.8 8.0 0.00 3.00 2.97 81 1019.2
20260502013041 8 360 6.4 16.1 0.00 3.00 2.97 81 1019.1
20260502011541 9 86 8.0 14.5 0.00 3.00 2.97 81 1018.7
20260502010039 9 72 9.7 19.3 0.00 3.00 2.97 82 1019.0
20260502004542 9 82 12.9 22.5 0.00 3.00 2.97 82 1018.9
20260502003038 8 52 12.9 20.9 0.00 3.00 2.97 82 1018.9
20260502001610 8 360 9.7 22.5 0.03 3.00 2.97 82 1018.9
20260502000036 8 41 16.1 25.7 0.03 3.00 2.97 82 1019.0
20260501234534 8 43 14.5 27.4 0.05 3.00 2.97 84 1018.6
20260501233033 8 48 14.5 25.7 0.08 3.00 2.97 86 1018.6
20260501231534 8 41 16.1 25.7 0.08 2.97 2.92 86 1018.4
20260501230031 10 40 12.9 20.9 0.13 2.97 2.92 88 1018.1
20260501224527 10 62 11.3 22.5 0.10 2.97 2.90 88 1017.9
20260501223025 10 49 11.3 20.9 0.10 2.92 2.87 88 1017.6
20260501221523 9 51 11.3 22.5 0.10 2.90 2.84 86 1017.4